Weather History for Hebron, NE

Change the Weather History Date:

Wednesday, February 13, 2013

  Actual Average Record
Temperature  
Mean Temperature 40 °F -  
Max Temperature 56 °F 40 °F 70 °F (1976)
Min Temperature 25 °F 17 °F 0 °F (1949)
Degree Days  
Heating Degree Days 24    
Moisture  
Dew Point 23 °F    
Average Humidity 57    
Maximum Humidity 82    
Minimum Humidity 25    
Precipitation  
Precipitation 0.00 in - - ()
Sea Level Pressure  
Sea Level Pressure 29.86 in    
Wind  
Wind Speed 7 mph (West)    
Max Wind Speed 16 mph    
Max Gust Speed 23 mph    
Visibility 10 miles    
Events      
Averages and records for this station are not official NWS values.
T = Trace of Precipitation, MM = Missing Value Source: NWS Daily Summary

Daily Weather History Graph

Daily Weather History Graph

Search for Another Location

Airport:

Trip Planner

Search our weather history database for the weather conditions in past years. The results will help you decide how hot, cold, wet, or windy it might be!

Date:

Astronomy

Feb. 13, 2013 Rise Set
Actual Time 7:25 AM CST 6:04 PM CST
Civil Twilight 6:57 AM CST 6:31 PM CST
Nautical Twilight 6:25 AM CST 7:03 PM CST
Astronomical Twilight 5:54 AM CST 7:35 PM CST
Moon 8:55 AM CST (2/13) 10:08 PM CST (2/13)
Length of Visible Light 11h 34m
Length of Day
10h 38m
Waxing Crescent, 14% of the Moon is Illuminated
Feb 13
Waxing Crescent
Feb 17
First Quarter
Feb 25
Full
Mar 4
Last Quarter
Mar 11
New

Hourly Weather History & Observations

Time (CST) Temp. Windchill Dew Point Humidity Pressure Visibility Wind Dir Wind Speed Gust Speed Precip Events Conditions
12:15 AM 27.9 °F 24.0 °F 21.6 °F 77% 29.95 in 10.0 mi West 3.5 mph - N/A   Clear
12:35 AM 28.2 °F 24.4 °F 21.2 °F 75% 29.94 in 10.0 mi WSW 3.5 mph - N/A   Clear
12:55 AM 25.3 °F 21.1 °F 20.1 °F 81% 29.94 in 10.0 mi West 3.5 mph - N/A   Clear
1:15 AM 28.4 °F 21.2 °F 20.3 °F 72% 29.94 in 10.0 mi WSW 6.9 mph - N/A   Clear
1:35 AM 28.2 °F 22.0 °F 20.3 °F 72% 29.94 in 10.0 mi West 5.8 mph - N/A   Clear
1:55 AM 29.1 °F 21.3 °F 20.3 °F 70% 29.94 in 10.0 mi West 8.1 mph - N/A   Clear
2:15 AM 28.4 °F 21.2 °F 20.7 °F 73% 29.93 in 10.0 mi West 6.9 mph - N/A   Clear
2:35 AM 28.9 °F 20.4 °F 21.0 °F 72% 29.93 in 10.0 mi West 9.2 mph - N/A   Clear
2:55 AM 28.8 °F 22.6 °F 21.0 °F 73% 29.93 in 10.0 mi West 5.8 mph - N/A   Clear
3:15 AM 28.6 °F 20.7 °F 21.2 °F 74% 29.92 in 10.0 mi WSW 8.1 mph - N/A   Clear
3:35 AM 29.1 °F 21.3 °F 21.2 °F 72% 29.91 in 10.0 mi WSW 8.1 mph - N/A   Clear
3:55 AM 29.1 °F 21.3 °F 21.2 °F 72% 29.91 in 10.0 mi West 8.1 mph - N/A   Clear
4:15 AM 29.1 °F 19.4 °F 21.2 °F 72% 29.91 in 10.0 mi WSW 11.5 mph - N/A   Clear
4:35 AM 28.8 °F 19.5 °F 21.6 °F 74% 29.90 in 10.0 mi West 10.4 mph - N/A   Clear
4:55 AM 28.4 °F 19.7 °F 21.6 °F 76% 29.90 in 10.0 mi West 9.2 mph - N/A   Clear
5:15 AM 28.0 °F 20.0 °F 21.7 °F 77% 29.89 in 10.0 mi West 8.1 mph - N/A   Clear
5:35 AM 27.9 °F 24.0 °F 21.7 °F 78% 29.89 in 10.0 mi West 3.5 mph - N/A   Clear
5:55 AM 27.3 °F 23.4 °F 21.6 °F 79% 29.89 in 10.0 mi West 3.5 mph - N/A   Clear
6:15 AM 27.3 °F 19.9 °F 21.7 °F 80% 29.88 in 10.0 mi West 6.9 mph - N/A   Clear
6:35 AM 27.3 °F 18.4 °F 21.6 °F 79% 29.90 in 10.0 mi West 9.2 mph - N/A   Clear
6:55 AM 26.6 °F 20.0 °F 21.0 °F 79% 29.89 in 10.0 mi West 5.8 mph - N/A   Clear
7:15 AM 25.7 °F 21.5 °F 20.8 °F 82% 29.89 in 10.0 mi West 3.5 mph - N/A   Clear
7:35 AM 25.7 °F 21.5 °F 20.8 °F 82% 29.90 in 10.0 mi West 3.5 mph - N/A   Clear
7:55 AM 27.0 °F 23.0 °F 21.6 °F 80% 29.89 in 10.0 mi West 3.5 mph - N/A   Clear
8:15 AM 28.9 °F 25.2 °F 22.6 °F 77% 29.89 in 10.0 mi West 3.5 mph - N/A   Clear
8:35 AM 28.6 °F 22.4 °F 22.6 °F 78% 29.90 in 10.0 mi West 5.8 mph - N/A   Clear
8:55 AM 30.4 °F 25.6 °F 23.5 °F 76% 29.89 in 10.0 mi West 4.6 mph - N/A   Clear
9:15 AM 31.1 °F 24.5 °F 23.9 °F 75% 29.89 in 10.0 mi West 6.9 mph - N/A   Clear
9:35 AM 33.4 °F 27.3 °F 25.5 °F 73% 29.89 in 10.0 mi WNW 6.9 mph - N/A   Clear
9:55 AM 36.3 °F 28.9 °F 25.7 °F 65% 29.89 in 10.0 mi WNW 10.4 mph - N/A   Clear
10:15 AM 37.8 °F 33.3 °F 25.7 °F 62% 29.88 in 10.0 mi West 5.8 mph - N/A   Clear
10:35 AM 40.6 °F 34.3 °F 26.1 °F 56% 29.89 in 10.0 mi NW 10.4 mph - N/A   Clear
10:55 AM 42.4 °F 37.0 °F 25.7 °F 52% 29.88 in 10.0 mi WNW 9.2 mph - N/A   Clear
11:15 AM 44.4 °F 41.2 °F 25.3 °F 47% 29.88 in 10.0 mi WNW 5.8 mph - N/A   Clear
11:35 AM 46.2 °F 42.7 °F 25.0 °F 43% 29.88 in 10.0 mi WSW 6.9 mph - N/A   Clear
11:55 AM 48.2 °F - 24.1 °F 39% 29.87 in 10.0 mi West 6.9 mph - N/A   Clear
12:15 PM 49.6 °F - 23.7 °F 36% 29.85 in 10.0 mi West 9.2 mph - N/A   Clear
12:35 PM 51.3 °F - 23.0 °F 33% 29.84 in 10.0 mi West 9.2 mph - N/A   Clear
12:55 PM 52.0 °F - 21.9 °F 31% 29.83 in 10.0 mi WSW 10.4 mph - N/A   Clear
1:15 PM 52.7 °F - 21.0 °F 29% 29.83 in 10.0 mi WSW 10.4 mph 17.3 mph N/A   Clear
1:35 PM 53.6 °F - 20.5 °F 27% 29.82 in 10.0 mi WSW 12.7 mph 17.3 mph N/A   Clear
1:55 PM 53.8 °F - 20.5 °F 27% 29.81 in 10.0 mi West 12.7 mph - N/A   Clear
2:15 PM 54.5 °F - 20.3 °F 26% 29.81 in 10.0 mi West 12.7 mph 20.7 mph N/A   Clear
2:35 PM 54.1 °F - 20.3 °F 27% 29.80 in 10.0 mi WNW 16.1 mph 21.9 mph N/A   Clear
2:55 PM 54.7 °F - 20.7 °F 27% 29.80 in 10.0 mi WNW 15.0 mph 23.0 mph N/A   Clear
3:15 PM 55.4 °F - 20.8 °F 26% 29.79 in 10.0 mi WNW 16.1 mph 19.6 mph N/A   Clear
3:35 PM 54.9 °F - 19.2 °F 25% 29.78 in 10.0 mi WNW 11.5 mph 18.4 mph N/A   Clear
3:55 PM 56.3 °F - 20.3 °F 25% 29.78 in 10.0 mi WNW 9.2 mph 18.4 mph N/A   Clear
4:15 PM 55.4 °F - 20.1 °F 25% 29.78 in 10.0 mi WNW 15.0 mph 19.6 mph N/A   Clear
4:35 PM 55.6 °F - 21.4 °F 26% 29.78 in 10.0 mi WNW 10.4 mph - N/A   Clear
4:55 PM 55.0 °F - 21.2 °F 27% 29.78 in 10.0 mi WNW 13.8 mph 18.4 mph N/A   Clear
5:15 PM 54.5 °F - 21.2 °F 27% 29.78 in 10.0 mi West 8.1 mph - N/A   Clear
5:35 PM 52.7 °F - 22.5 °F 31% 29.78 in 10.0 mi West 8.1 mph - N/A   Clear
5:55 PM 50.5 °F - 23.4 °F 35% 29.79 in 10.0 mi West 5.8 mph - N/A   Scattered Clouds
6:15 PM 49.5 °F - 24.8 °F 38% 29.79 in 10.0 mi West 3.5 mph - N/A   Overcast
6:35 PM 49.1 °F - 24.4 °F 38% 29.79 in 10.0 mi West 5.8 mph - N/A   Scattered Clouds
6:55 PM 48.2 °F - 24.6 °F 40% 29.80 in 10.0 mi West 4.6 mph - N/A   Mostly Cloudy
7:15 PM 44.8 °F 41.6 °F 25.2 °F 46% 29.80 in 10.0 mi WSW 5.8 mph - N/A   Scattered Clouds
7:35 PM 42.6 °F 38.4 °F 25.0 °F 50% 29.81 in 10.0 mi West 6.9 mph - N/A   Clear
7:55 PM 41.0 °F 36.4 °F 25.0 °F 53% 29.81 in 10.0 mi West 6.9 mph - N/A   Clear
8:15 PM 40.6 °F 36.0 °F 25.0 °F 54% 29.81 in 10.0 mi West 6.9 mph - N/A   Clear
8:35 PM 38.1 °F 35.7 °F 24.4 °F 58% 29.82 in 10.0 mi West 3.5 mph - N/A   Clear
8:55 PM 37.6 °F - 24.6 °F 60% 29.82 in 10.0 mi Calm Calm - N/A   Clear
9:15 PM 37.4 °F 33.8 °F 24.8 °F 60% 29.82 in 10.0 mi West 4.6 mph - N/A   Clear
9:35 PM 36.1 °F 33.5 °F 25.3 °F 65% 29.82 in 10.0 mi West 3.5 mph - N/A   Clear
9:55 PM 36.1 °F 31.4 °F 25.3 °F 65% 29.82 in 10.0 mi West 5.8 mph - N/A   Clear
10:15 PM 36.1 °F 33.5 °F 25.7 °F 66% 29.82 in 10.0 mi West 3.5 mph - N/A   Clear
10:35 PM 36.0 °F 32.1 °F 25.7 °F 66% 29.83 in 10.0 mi West 4.6 mph - N/A   Clear
10:55 PM 36.0 °F 32.1 °F 26.1 °F 67% 29.83 in 10.0 mi West 4.6 mph - N/A   Clear
11:15 PM 35.8 °F 30.9 °F 26.1 °F 68% 29.84 in 10.0 mi West 5.8 mph - N/A   Clear
11:35 PM 35.6 °F 31.7 °F 26.6 °F 70% 29.85 in 10.0 mi West 4.6 mph - N/A   Scattered Clouds
11:55 PM 37.0 °F 33.3 °F 26.6 °F 66% 29.86 in 10.0 mi WNW 4.6 mph - N/A   Mostly Cloudy